[Iaude] MPEC U125: 2016 UE57 [a=1.01,e=0.19,i=10.1,H=26.3]

mpec at si.edu mpec at si.edu
Mon Oct 31 18:31:43 EDT 2016


M.P.E.C. 2016-U125                               Issued 2016 Oct. 31, 22:26 UT
 
     The Minor Planet Electronic Circulars contain information on unusual
         minor planets and routine data on comets.  They are published
    on behalf of Division F of the International Astronomical Union by the
          Minor Planet Center, Smithsonian Astrophysical Observatory,
                          Cambridge, MA 02138, U.S.A.

             Prepared using the Tamkin Foundation Computer Network

                              MPC at CFA.HARVARD.EDU
            URL http://www.minorplanetcenter.net/    ISSN 1523-6714


                                   2016 UE57
 
Observations:
     K16U57E* C2016 10 30.09495 22 05 59.27 +18 02 55.5          19.0 VqEU125703
     K16U57E  C2016 10 30.10095 22 06 10.79 +18 06 58.9          19.6 VqEU125703
     K16U57E  C2016 10 30.10699 22 06 22.44 +18 11 02.2          19.1 VqEU125703
     K16U57E  C2016 10 30.11301 22 06 33.93 +18 15 04.0          19.1 VqEU125703
     K16U57E  C2016 10 30.12747 22 07 01.19 +18 24 33.5                qEU125703
     K16U57E  C2016 10 30.12832 22 07 02.79 +18 25 09.3          19.7 VqEU125703
     K16U57E HC2016 10 30.12833 22 07 03.83 +18 25 21.7          19.3 VoEU125691
     K16U57E HC2016 10 30.12991 22 07 06.78 +18 26 22.9          19.1 VoEU125691
     K16U57E  C2016 10 30.13001 22 07 06.33 +18 26 21.1                qEU125703
     K16U57E HC2016 10 30.13155 22 07 10.05 +18 27 30.2          19.7 VoEU125691
     K16U57E  C2016 10 30.15173 22 07 47.31 +18 40 34.9          19.6 VqEU125703
     K16U57E  C2016 10 30.15223 22 07 48.46 +18 40 56.1          18.9 VqEU125703
     K16U57E  C2016 10 30.15273 22 07 49.35 +18 41 17.1          19.0 VqEU125703
     K16U57E  C2016 10 30.16344 22 08 09.55 +18 48 11.0          18.9 VqEU125G96
     K16U57E  C2016 10 30.17096 22 08 23.98 +18 53 01.1          18.0 VqEU125G96
     K16U57E  C2016 10 30.17783 22 08 36.65 +18 57 26.3                qEU125G96
     K16U57E  C2016 10 30.20451 22 09 26.40 +19 14 08.9          18.5 VqEU125G96
     K16U57E  C2016 10 30.20883 22 09 34.48 +19 16 50.3          18.9 VqEU125G96
     K16U57E  C2016 10 30.21425 22 09 44.60 +19 20 11.7          18.8 VqEU125G96
     K16U57E  C2016 10 30.21863 22 09 52.76 +19 22 53.6          19.7 VqEU125G96
     K16U57E  C2016 10 30.28566 22 11 58.39 +20 03 01.9          18.6 VqEU125I52
     K16U57E  C2016 10 30.28586 22 11 58.47 +20 03 19.4          18.4 RoEU125926
     K16U57E  C2016 10 30.28608 22 11 59.20 +20 03 17.0          18.7 VqEU125I52
     K16U57E  C2016 10 30.28650 22 11 59.97 +20 03 31.5          19.0 VqEU125I52
     K16U57E  C2016 10 30.28692 22 12 00.77 +20 03 46.1          19.1 VqEU125I52
     K16U57E  C2016 10 30.28737 22 12 01.32 +20 04 12.6          18.9 RoEU125926
     K16U57E  C2016 10 30.28887 22 12 04.13 +20 05 05.2          18.6 RoEU125926
     K16U57E KC2016 10 30.69408 22 25 17.07 +23 39 23.0          19.1 V EU125L04
     K16U57E KC2016 10 30.69771 22 25 22.54 +23 41 07.0          19.2 V EU125L04
     K16U57E KC2016 10 30.69980 22 25 25.62 +23 42 06.5          19.0 V EU125L04
     K16U57E KC2016 10 30.75022 22 26 47.51 +24 05 59.8          18.7 RqEU125160
     K16U57E KC2016 10 30.75170 22 26 50.22 +24 06 20.3          18.9 RqEU125587
     K16U57E KC2016 10 30.75242 22 26 50.77 +24 07 00.6          18.9 RqEU125160
     K16U57E KC2016 10 30.75462 22 26 53.96 +24 08 01.0          19.2 RqEU125160
     K16U57E KC2016 10 30.75529 22 26 55.46 +24 07 58.6                qEU125587
     K16U57E KC2016 10 30.75681 22 26 57.14 +24 09 01.3          19.1 RqEU125160
     K16U57E KC2016 10 30.75901 22 27 00.39 +24 10 01.8          18.8 RqEU125160
     K16U57E KC2016 10 30.75927 22 27 01.27 +24 09 48.9                qEU125587
     K16U57E KC2016 10 30.82426 22 28 33.69 +24 39 04.7          18.9 RqEU125104
     K16U57E KC2016 10 30.82700 22 28 37.57 +24 40 16.4          19.0 RqEU125104
     K16U57E KC2016 10 30.82975 22 28 41.45 +24 41 27.9          19.2 RqEU125104
     K16U57E KC2016 10 30.83392 22 28 46.19 +24 42 56.6          18.7 VtEU125595
     K16U57E KC2016 10 30.85497 22 29 16.01 +24 51 54.6          18.7 VtEU125595
     K16U57E  C2016 10 31.13087 22 36 21.89 +26 43 55.1          19.4 VqEU125I52
     K16U57E  C2016 10 31.13519 22 36 27.08 +26 45 30.4          19.5 VqEU125I52
     K16U57E  C2016 10 31.13561 22 36 27.60 +26 45 39.9          19.4 VqEU125I52
     K16U57E  C2016 10 31.13603 22 36 28.09 +26 45 48.9          19.0 VqEU125I52
     K16U57E  C2016 10 31.71805 22 48 56.43 +29 47 09.5          19.0 RqEU125246
     K16U57E  C2016 10 31.71818 22 48 56.54 +29 47 11.0                qEU125246
     K16U57E  C2016 10 31.71843 22 48 56.77 +29 47 14.8                qEU125246
     K16U57E  C2016 10 31.71856 22 48 56.84 +29 47 18.6                qEU125246
     K16U57E KC2016 10 31.79055 22 50 08.68 +30 07 10.6          19.0 RoEU125K51
     K16U57E KC2016 10 31.79243 22 50 10.49 +30 07 40.1          19.0 RoEU125K51
     K16U57E KC2016 10 31.79439 22 50 12.34 +30 08 10.9          18.8 RoEU125K51
 
Observer details:
104 San Marcello Pistoiese.  Observers P. Bacci, M. Maestripieri.  Measurers
    P. Bacci, L. Tesi, G. Fagioli.  0.60-m f/4 reflector + CCD.
160 Castelmartini.  Observers M. Jaeger, E. Prosperi, S. Prosperi, W. Vollmann.
    Measurer E. Prosperi.  0.35-m f/10 Schmidt-Cassegrain + CCD.
246 Klet Observatory-KLENOT.  Observers M. Tichy, J. Ticha.  Measurer M. Tichy.
    1.06-m KLENOT Telescope + CCD.
587 Sormano.  Observers M. Calcagno, A. Fumagalli, A. Testa.  Measurer
    A. Testa.  0.5-m f/6.8 reflector + CCD.
595 Farra d'Isonzo.  Observer E. Pettarin.  0.40-m f/4.5 reflector + CCD.
691 Steward Observatory, Kitt Peak.  Observer M. T. Read.  0.9-m f/3 reflector
    + CCD.
703 Catalina Sky Survey.  Observer R. G. Matheny.  Measurers E. J. Christensen,
    D. C. Fuls, A. R. Gibbs, A. D. Grauer, J. A. Johnson, R. A. Kowalski,
    S. M. Larson, G. J. Leonard, R. G. Matheny, R. L. Seaman, F. C. Shelly.
    0.68-m Schmidt + CCD.
926 Tenagra II Observatory.  Observers M. Schwartz, P. R. Holvorcem.  Measurer
    M. Schwartz.  0.81-m f/7 Ritchey-Chretien + CCD.
G96 Mt. Lemmon Survey.  Observer D. C. Fuls.  Measurers E. J. Christensen,
    D. C. Fuls, A. R. Gibbs, A. D. Grauer, J. A. Johnson, R. A. Kowalski,
    S. M. Larson, G. J. Leonard, R. G. Matheny, R. L. Seaman, F. C. Shelly.
    1.5-m reflector + 10K CCD.
I52 Steward Observatory, Mt. Lemmon Station.  Observers J. A. Johnson,
    G. J. Leonard.  Measurers E. J. Christensen, D. C. Fuls, A. R. Gibbs,
    A. D. Grauer, J. A. Johnson, R. A. Kowalski, S. M. Larson, G. J. Leonard,
    R. G. Matheny, R. L. Seaman, F. C. Shelly.  1.0-m reflector + CCD.
K51 Osservatorio del Celado, Castello Tesino.  Observers G. Favero, R. Furgoni.
    Measurer R. Furgoni.  0.80-m f/4 reflector + CCD.
L04 ROASTERR-1 Observatory, Cluj-Napoca.  Observer L. Hudin.  0.3-m f/5.0
    reflector + CCD.
 
Orbital elements:
2016 UE57                                                Earth MOID = 0.0011 AU
Epoch 2016 July 31.0 TT = JDT 2457600.5                 MPC
M 347.85629              (2000.0)            P               Q
n   0.97351597     Peri.  263.95250     +0.46797765     +0.87815896
a   1.0082634      Node    34.51589     -0.72571176     +0.44590285
e   0.1856226      Incl.   10.07910     -0.50432069     +0.17322671
P   1.01           H   26.3           G   0.15           U   6
Residuals in seconds of arc
161030 703  0.1-  1.3+    161030 G96  0.2+  0.7+    161030 160  0.8+  0.5-
161030 703  0.8-  0.8+    161030 G96  0.1-  0.7+    161030 587  0.1-  0.3+
161030 703  0.2-  0.4-    161030 I52  0.2-  0.0     161030 104  0.0   0.3-
161030 703  0.9-  1.0-    161030 926  0.2+  0.1-    161030 104  0.1+  0.2+
161030 703 (5.3-  9.2-)   161030 I52  0.1+  0.4+    161030 104  0.1+  0.3+
161030 703 (5.5-  7.1-)   161030 I52  0.3-  0.2+    161030 595  0.0   0.5+
161030 691  0.1+  0.7-    161030 I52  0.1-  0.1+    161030 595  0.2+  0.4+
161030 691 (0.6-  2.2-)   161030 926  0.2+  0.3+    161031 I52  0.3-  0.0
161030 703 (0.8-  2.3-)   161030 926  0.0   0.5+    161031 I52  0.4-  0.2-
161030 691 (1.7+  0.1+)   161030 L04  0.4+  0.4-    161031 I52  0.2-  0.1+
161030 703 (2.1-  1.9-)   161030 L04  0.1+  0.3-    161031 I52  0.4-  0.2-
161030 703  0.9+  0.2-    161030 L04  0.9-  0.6-    161031 246  1.4+  0.7+
161030 703  0.1+  1.3+    161030 160  0.1-  0.2-    161031 246  1.1+  0.0
161030 G96  0.4+  0.5+    161030 587  0.4+  0.4+    161031 246  0.8+  0.4-
161030 G96 (4.9+  1.4+)   161030 160  0.5+  0.2-    161031 246  0.0   1.3+
161030 G96 (2.0+  3.9+)   161030 160  0.3+  0.5-    161031 K51  0.6-  0.2+
161030 G96  0.1+  0.0     161030 587  0.0   0.4-    161031 K51  0.4-  0.1-
161030 G96  0.2+  0.5+    161030 160  0.1+  0.5-    161031 K51  0.7-  0.2-

Ephemeris:
2016 UE57                a,e,i = 1.01, 0.19, 10                  q = 0.8211
Date    TT    R. A. (2000) Decl.     Delta      r     Elong.  Phase     V
2016 10 01    12 44 25.0 -44 40 15   0.1320  0.9068    41.6   132.8    27.7
...
2016 10 16    13 05 28.3 -49 22 59   0.05807 0.9535    40.7   137.0    26.5
...
2016 10 24    14 35 21.6 -54 07 33   0.02097 0.9794    43.1   136.0    24.2
...
2016 10 30    22 02 18.2 +16 59 26   0.01205 0.9989   118.6    60.8    18.9
2016 10 31    22 33 08.9 +25 54 43   0.01590 1.0021   125.5    53.8    19.3
2016 11 01    22 53 49.1 +31 01 06   0.02014 1.0053   129.0    50.2    19.7
...
2016 11 07    23 44 53.9 +40 27 57   0.04765 1.0244   133.5    44.6    21.5
...
2016 11 15    00 07 56.5 +42 49 49   0.08576 1.0490   132.6    43.9    22.8
...
2016 11 30    00 34 34.4 +43 21 08   0.1599  1.0920   128.0    45.4    24.2

A. U. Tomatic                (C) Copyright 2016 MPC           M.P.E.C. 2016-U125




More information about the Iaude mailing list